Location: ??????????
(48.4699°N, 37.9573°E)
Time: 21:09:01
(UTC+00:00)

Cosmos 2180 Rocket - Pass Details

Date: 20 January 2021
Orbit: 954 x 1004 km, 82.9° (Epoch: 01 March)

Event Time Altitude Azimuth Distance (km) Brightness Sun altitude
Rises 15:20:05 0° 351° (N) 3,730 7.5 -11.7°
Reaches altitude 10° 15:22:38 10° 353° (N) 2,781 6.8 -12.1°
Maximum altitude 15:29:03 78° 80° (E) 1,030 4.5 -13.2°
Drops below altitude 10° 15:35:27 10° 167° (SSE) 2,772 6.9 -14.2°
Sets 15:37:58 0° 169° (S) 3,716 7.6 -14.6°
